DELTA 1 DEB, 7169

Orbit data source: Space-Track

DELTA 1 DEB, 7169 is space debris in SSO originally from a launch on Tue, 06 Nov 1973 UTC launched from the Air Force Western Test Range (AFWTR). Debris objects in space refer to the collection of defunct objects orbiting the Earth. Examples of debris include non-operational satellites, rocket bodies, and fragments generated from explosions, collisions, or faulty payload assembly.

Loading next visibility...
Identifier
7169, 1973-086EH
Orbit
SSO
Country
Flag of USUS
Related business
Manufacturer
Unknown
Mission
Spacecraft
Bus & Motor
Unknown
Mass
Unknown
Launch date (UTC)
1973-11-06 (52 years ago)
Launch vehicle
Unknown
Launch site
Air Force Western Test Range (AFWTR)
Object type
Payload
Rocket body
Debris
Shape & HBR
Unknown shape, 0.1 m
Radar Cross Section
Small (<0.1 m²)

Expand to show TLE details & history
Last TLE update: 1 day ago

TLE from 1 day ago
0 DELTA 1 DEB
1 07169U 73086EH  25291.93545962  .00000269  00000-0  15517-2 0  9997
2 07169 101.4474 354.6802 0134934 197.0725 341.2307 12.68670683398871
Epoch: 2025-10-18T22:27Z
TLE epoch observation values (Epoch: 2025-10-18T22:27:03.711Z)
Latitude
2.06351°
Longitude
170.67134°
Altitude
1,290.649 km
Speed
7.257 km/s
True Right ascension
11h 40m 23s
True Declination
2° 03' 07"
Sunlit
Object was in daylight at epoch
Visualization orbit readout
Latitude
Unknown
Longitude
Unknown
Altitude
Unknown
Speed
Unknown
Apparent Right ascension
Unknown
Apparent Declination
Unknown
Sunlit
N/A
Visualization observer readout
Local Sidereal Time
20:04:07
Azimuth
Unknown
Elevation
Unknown
Doppler factor
Unknown
Orbital elements
Apogee altitude
1,489.613 km
Perigee altitude
1,280.114 km
Semi-major axis
7,763.001 km
Eccentricity
0.01349
Inclination
101.4474°
RAAN
354.6802°
Arg. of periapsis
197.0725°
True anomaly
340.72513°
Mean anomaly
341.2307°
Eccentric anomaly
340.97873°
Mean motion
3.17321 °/min
Orbital period
113.45 mins
BSTAR
0.0015517
Loading maneuver chart data...
Computing Atmospheric mass density...
Loading historical data...
Loading historical data...
Loading historical data...
Loading historical data...
Loading historical data...
Loading historical data...
Loading historical data...

Documentation

Showing up to 5 results
|